Weather History for Ludington, MI

Change the Weather History Date:

Saturday, December 1, 2012

  Actual Average Record
Temperature  
Mean Temperature 44 °F -  
Max Temperature 52 °F 38 °F 62 °F (1962)
Min Temperature 35 °F 24 °F 8 °F (1966)
Degree Days  
Heating Degree Days 22    
Moisture  
Dew Point 37 °F    
Average Humidity 83    
Maximum Humidity 90    
Minimum Humidity 75    
Precipitation  
Precipitation 0.47 in - - ()
Sea Level Pressure  
Sea Level Pressure 30.05 in    
Wind  
Wind Speed 9 mph (SE)    
Max Wind Speed 14 mph    
Max Gust Speed 21 mph    
Visibility 4 miles    
Events Rain    
Averages and records for this station are not official NWS values.
T = Trace of Precipitation, MM = Missing Value Source: NWS Daily Summary

Daily Weather History Graph

Daily Weather History Graph

Search for Another Location

Airport:

Trip Planner

Search our weather history database for the weather conditions in past years. The results will help you decide how hot, cold, wet, or windy it might be!

Date:

Astronomy

Dec. 01, 2012 Rise Set
Actual Time 8:00 AM EST 5:08 PM EST
Civil Twilight 7:28 AM EST 5:41 PM EST
Nautical Twilight 6:52 AM EST 6:17 PM EST
Astronomical Twilight 6:17 AM EST 6:51 PM EST
Moon 8:00 PM EST (12/1) 10:11 AM EST (12/1)
Length of Visible Light 10h 12m
Length of Day
9h 08m
Waning Gibbous, 92% of the Moon is Illuminated
Dec 1
Waning Gibbous
Dec 6
Last Quarter
Dec 13
New
Dec 20
First Quarter
Dec 28
Full

Hourly Weather History & Observations

Time (EST) Temp. Windchill Dew Point Humidity Pressure Visibility Wind Dir Wind Speed Gust Speed Precip Events Conditions
12:15 AM 37.6 °F 31.0 °F 33.8 °F 86% 30.21 in 4.0 mi ESE 9.2 mph - N/A   Overcast
12:36 AM 37.6 °F 33.1 °F 33.8 °F 86% 30.21 in 4.0 mi ESE 5.8 mph - N/A   Overcast
12:55 AM 37.6 °F 31.6 °F 33.8 °F 86% 30.21 in 4.0 mi ESE 8.1 mph - N/A   Overcast
1:15 AM 37.6 °F 32.3 °F 33.8 °F 86% 30.21 in 5.0 mi ESE 6.9 mph - N/A   Overcast
1:36 AM 37.6 °F 31.6 °F 33.4 °F 85% 30.21 in 5.0 mi ESE 8.1 mph - N/A   Overcast
1:55 AM 37.6 °F 33.1 °F 33.4 °F 85% 30.21 in 5.0 mi ESE 5.8 mph - N/A   Overcast
2:15 AM 37.6 °F 33.1 °F 33.3 °F 84% 30.20 in 5.0 mi ESE 5.8 mph - N/A   Haze
2:35 AM 37.6 °F 31.6 °F 33.3 °F 84% 30.20 in 5.0 mi East 8.1 mph - N/A   Haze
2:55 AM 37.6 °F 32.3 °F 33.4 °F 85% 30.20 in 5.0 mi East 6.9 mph - N/A   Overcast
3:15 AM 37.6 °F 32.3 °F 33.4 °F 85% 30.20 in 5.0 mi ESE 6.9 mph - N/A   Overcast
3:55 AM 36.7 °F 32.0 °F 32.7 °F 86% 30.20 in 4.0 mi ESE 5.8 mph - N/A   Overcast
4:15 AM 36.5 °F 30.3 °F 32.4 °F 85% 30.20 in 4.0 mi East 8.1 mph - N/A   Overcast
4:35 AM 36.5 °F 30.3 °F 32.4 °F 85% 30.17 in 4.0 mi ESE 8.1 mph - N/A   Overcast
4:55 AM 36.5 °F 29.7 °F 32.4 °F 85% 30.17 in 4.0 mi SE 9.2 mph - N/A   Overcast
5:15 AM 36.5 °F 31.0 °F 32.2 °F 84% 30.17 in 4.0 mi ESE 6.9 mph - N/A   Overcast
5:35 AM 35.6 °F 29.2 °F 32.0 °F 87% 30.17 in 5.0 mi ESE 8.1 mph - N/A   Overcast
5:55 AM 35.1 °F 29.3 °F 31.5 °F 87% 30.17 in 5.0 mi SE 6.9 mph - N/A   Overcast
6:15 AM 35.1 °F 31.0 °F 31.3 °F 86% 30.18 in 5.0 mi ESE 4.6 mph - N/A   Overcast
6:35 AM 35.1 °F 28.6 °F 31.1 °F 85% 30.18 in 5.0 mi ESE 8.1 mph - N/A   Overcast
7:15 AM 35.1 °F 26.9 °F 31.1 °F 85% 30.16 in 5.0 mi ESE 11.5 mph - N/A   Overcast
7:35 AM 35.1 °F 26.9 °F 31.1 °F 85% 30.15 in 5.0 mi ESE 11.5 mph 17.3 mph N/A   Overcast
7:55 AM 35.1 °F 26.9 °F 31.1 °F 85% 30.15 in 5.0 mi SE 11.5 mph 16.1 mph N/A   Overcast
8:15 AM 35.1 °F 27.9 °F 31.1 °F 85% 30.15 in 4.0 mi SE 9.2 mph - N/A   Overcast
8:35 AM 35.1 °F 26.4 °F 31.1 °F 85% 30.14 in 3.0 mi SE 12.7 mph 17.3 mph N/A   Overcast
8:55 AM 35.1 °F 28.6 °F 31.1 °F 85% 30.15 in 3.0 mi ESE 8.1 mph - N/A   Overcast
9:15 AM 35.1 °F 27.9 °F 31.1 °F 85% 30.14 in 3.0 mi SE 9.2 mph - N/A   Overcast
9:35 AM 35.1 °F 25.9 °F 31.1 °F 85% 30.14 in 3.0 mi SE 13.8 mph 17.3 mph N/A   Overcast
9:55 AM 35.1 °F 26.9 °F 31.1 °F 85% 30.13 in 3.0 mi SE 11.5 mph - N/A   Overcast
10:15 AM 35.6 °F 27.1 °F 31.3 °F 84% 30.13 in 3.0 mi SE 12.7 mph 17.3 mph N/A   Haze
10:36 AM 36.5 °F 28.7 °F 31.8 °F 83% 30.12 in 3.0 mi SE 11.5 mph 18.4 mph N/A   Overcast
11:15 AM 37.6 °F 29.6 °F 32.4 °F 81% 30.11 in 4.0 mi SE 12.7 mph 17.3 mph N/A   Haze
11:36 AM 37.6 °F 31.6 °F 32.0 °F 80% 30.10 in 4.0 mi SE 8.1 mph - N/A   Haze
11:55 AM 38.3 °F 31.4 °F 32.5 °F 80% 30.08 in 4.0 mi SE 10.4 mph 17.3 mph N/A   Haze
12:15 PM 40.1 °F 33.2 °F 33.8 °F 78% 30.06 in 4.0 mi SE 11.5 mph - N/A   Haze
12:35 PM 40.1 °F 33.6 °F 33.4 °F 77% 30.04 in 5.0 mi SE 10.4 mph - N/A   Haze
1:15 PM 41.4 °F 34.7 °F 34.3 °F 76% 30.02 in 5.0 mi SSE 11.5 mph 19.6 mph N/A   Haze
1:35 PM 42.8 °F 35.8 °F 35.2 °F 75% 30.02 in 5.0 mi SE 13.8 mph 17.3 mph N/A   Haze
1:55 PM 43.0 °F 37.7 °F 35.6 °F 75% 30.01 in 5.0 mi SE 9.2 mph - N/A   Haze
2:15 PM 43.2 °F 37.9 °F 35.8 °F 75% 30.02 in 5.0 mi SSE 9.2 mph - N/A   Haze
2:35 PM 43.9 °F 38.8 °F 36.5 °F 75% 30.01 in 5.0 mi SSE 9.2 mph 16.1 mph N/A   Haze
2:55 PM 43.9 °F 38.8 °F 36.5 °F 75% 29.99 in 5.0 mi SSE 9.2 mph - N/A   Haze
3:15 PM 43.9 °F 37.9 °F 36.5 °F 75% 29.99 in 5.0 mi SE 11.5 mph - N/A   Haze
3:35 PM 43.9 °F 38.3 °F 36.7 °F 76% 29.98 in 5.0 mi SE 10.4 mph - N/A   Haze
4:15 PM 44.4 °F 41.2 °F 37.2 °F 76% 29.97 in 5.0 mi SE 5.8 mph - N/A   Haze
4:35 PM 44.8 °F 39.9 °F 37.6 °F 76% 29.96 in 4.0 mi SSE 9.2 mph - N/A   Haze
4:55 PM 45.1 °F 40.8 °F 37.9 °F 76% 29.95 in 5.0 mi SSE 8.1 mph - N/A   Haze
5:15 PM 45.1 °F 40.3 °F 37.9 °F 76% 29.93 in 7.0 mi SE 9.2 mph - N/A   Overcast
5:35 PM 47.7 °F - 40.5 °F 76% 29.92 in 5.0 mi SSE 6.9 mph - N/A   Haze
6:15 PM 48.2 °F - 40.6 °F 75% 29.92 in 7.0 mi SE 5.8 mph - N/A   Overcast
6:55 PM 47.7 °F - 43.0 °F 84% 29.90 in 4.0 mi SE 6.9 mph - 0.04 in Rain Rain
7:15 PM 47.7 °F - 43.7 °F 86% 29.90 in 2.5 mi SE 6.9 mph - 0.07 in Rain Heavy Rain
7:35 PM 47.7 °F - 44.2 °F 88% 29.88 in 2.5 mi SE 9.2 mph - 0.13 in Rain Rain
7:55 PM 47.7 °F - 44.2 °F 88% 29.88 in 3.0 mi SSE 10.4 mph - 0.17 in Rain Rain
8:15 PM 47.7 °F - 44.6 °F 89% 29.87 in 2.0 mi SSE 6.9 mph - 0.08 in Rain Heavy Rain
8:35 PM 50.2 °F - 46.8 °F 88% 29.87 in 4.0 mi SSE 9.2 mph - 0.16 in Rain Light Rain
8:55 PM 50.2 °F - 46.8 °F 88% 29.87 in 3.0 mi SE 3.5 mph - 0.18 in Rain Rain
9:15 PM 50.2 °F - 46.9 °F 89% 29.87 in 2.0 mi ESE 3.5 mph - 0.03 in Rain Light Rain
9:35 PM 50.2 °F - 47.3 °F 90% 29.87 in 1.5 mi SSE 3.5 mph - 0.04 in Rain Rain
9:55 PM 52.7 °F - 49.8 °F 90% 29.86 in 4.0 mi SSW 12.7 mph 20.7 mph 0.04 in   Drizzle
10:15 PM 52.2 °F - 48.7 °F 88% 29.85 in 3.0 mi SW 11.5 mph 16.1 mph N/A   Light Drizzle
10:35 PM 51.4 °F - 48.2 °F 89% 29.85 in 4.0 mi SSW 12.7 mph - 0.01 in Rain Light Rain
10:56 PM 51.4 °F - 48.2 °F 89% 29.85 in 3.0 mi SW 13.8 mph 18.4 mph 0.01 in   Drizzle
11:15 PM 50.7 °F - 47.1 °F 87% 29.84 in 5.0 mi SW 13.8 mph 20.7 mph N/A Rain Rain
11:35 PM 50.2 °F - 46.6 °F 87% 29.84 in 3.0 mi SW 11.5 mph 20.7 mph 0.01 in Rain Rain
11:55 PM 50.2 °F - 46.8 °F 88% 29.84 in 2.5 mi SW 11.5 mph 17.3 mph 0.03 in Rain Rain